[[{"header":{"parameterUnit":"m.s-1","parameterCategory":1,"la1":30.2991,"la2":30.254,"lo1":-89.0895,"lo2":-89.0444,"dy":0.0017,"dx":0.0017,"nx":28,"ny":28,"refTime":"2024-04-22T03:00:00:Z","depth":0,"parameterNumber":2,"parameterNumberName":"U-component_of_WINDS"},"data":[0,0,0,0,0,0,0,0,0,0,0,0,0,0,0,0,0,0,0,0,0,0,0,0,0,0,0,0,0,0,0,0,0,0,0,0,0,0,0,0,0,0,0,0,0,0,0,0,0,0,0,0,0,0,0,0,0,0,-3.7372,-3.7372,0,-3.7436,-3.7437,-3.7438,-3.7361,-3.7358,-3.7355,-3.7353,-3.7416,-3.742,-3.7425,0,0,0,0,0,0,0,0,0,0,0,0,0,-3.7178,-3.7182,-3.7371,-3.7372,-3.7373,-3.7436,-3.7437,-3.7438,-3.7361,-3.7358,-3.7355,-3.7351,-3.7415,-3.742,-3.7425,0,0,0,0,0,0,0,0,0,0,0,0,0,-3.7254,-3.7183,-3.7371,-3.7343,-3.7341,-3.7436,-3.7437,-3.7438,-3.7362,-3.7358,-3.7354,-3.735,-3.7413,-3.7419,-3.7426,-3.7552,0,0,-3.7446,-3.7449,0,0,0,0,0,0,0,0,-3.725,-3.7261,-3.7346,-3.7345,-3.7343,-3.7386,-3.7392,-3.7476,-3.7363,-3.7354,-3.7352,-3.7348,-3.7409,-3.7416,-3.7437,-3.7555,-3.7557,-3.7446,-3.745,-3.7453,-3.7455,0,0,0,0,0,0,0,-3.7245,-3.7258,-3.7397,-3.7347,-3.7345,-3.7325,-3.7331,-3.7408,-3.7405,-3.7354,-3.7349,-3.7358,-3.7408,-3.7431,-3.7438,-3.7558,-3.7446,-3.7452,-3.7456,-3.7459,-3.7779,-3.7784,0,0,0,0,0,0,-3.7243,-3.7254,-3.7395,-3.7399,-3.7285,-3.7332,-3.7339,-3.7377,-3.7404,-3.7404,-3.7361,-3.7354,-3.7422,-3.7431,-3.744,-3.7587,-3.7453,-3.7459,-3.7463,-3.7775,-3.778,-3.7785,0,0,0,0,0,0,-3.7239,-3.7257,-3.7392,-3.7325,-3.7341,-3.734,-3.7383,-3.738,-3.7404,-3.7409,-3.7408,-3.7386,-3.7419,-3.7431,-3.7524,-3.7588,-3.7462,-3.7468,-3.7769,-3.7777,-3.7783,-3.7883,0,0,0,0,0,0,-3.7234,-3.7256,-3.7304,-3.7327,-3.7345,-3.7476,-3.7387,-3.7384,-3.7415,-3.7406,-3.7432,-3.7432,-3.7417,-3.7515,-3.7531,-3.7595,-3.7473,-3.7763,-3.7773,-3.7781,-3.7874,-3.7893,-3.7909,0,0,0,0,0,-3.7228,-3.733,-3.7307,-3.7325,-3.7406,-3.748,-3.749,-3.7471,-3.7421,-3.7469,-3.7472,-3.7431,-3.758,-3.7525,-3.7542,-3.7609,-3.7759,-3.777,-3.778,-3.7866,-3.7889,-3.7908,0,0,0,0,0,0,-3.7314,-3.7332,-3.7307,-3.742,-3.745,-3.7467,-3.7527,-3.7496,-3.7539,-3.7529,-3.7503,-3.7509,-3.7608,-3.7618,-3.7557,-3.7731,-3.7661,-3.7675,-3.7721,-3.7742,-3.7759,-3.7753,-3.7479,0,0,0,0,0,-3.7347,-3.7406,-3.7419,-3.7517,-3.7533,-3.7528,-3.756,-3.7543,-3.7571,-3.7583,-3.7593,-3.7622,-3.7674,-3.7709,-3.7758,-3.7876,-3.7879,-3.7931,-3.7948,-3.7962,-3.7974,-3.8034,-3.8057,-3.7819,-3.7819,-3.7819,0,0,-3.7413,-3.7431,-3.747,-3.7535,-3.7555,-3.7616,-3.7539,-3.7607,-3.7651,-3.7593,-3.768,-3.769,-3.7719,-3.7825,-3.7872,-3.7837,-3.8041,-3.7976,-3.7987,-3.7991,-3.8047,-3.807,-3.809,-3.7826,-3.7825,-3.7824,0,0,-3.7566,-3.7587,-3.767,-3.7692,-3.7724,-3.772,-3.774,-3.7763,-3.7766,-3.7855,-3.7811,-3.7864,-3.7956,-3.7978,-3.8001,-3.8163,-3.8125,-3.818,-3.8268,-3.8328,-3.8346,-3.8363,-3.8417,-3.8437,-3.8192,-3.8192,-3.8192,0,-3.7645,-3.7736,-3.7716,-3.7787,-3.7816,-3.7767,-3.7849,-3.7872,-3.7918,-3.7938,-3.7899,-3.8012,-3.8029,-3.8138,-3.8177,-3.8199,-3.8219,-3.8175,-3.8346,-3.8362,-3.8377,-3.8428,-3.8449,-3.8198,-3.8197,-3.8197,-3.8196,0,-3.783,-3.7894,-3.7957,-3.8003,-3.8039,-3.8116,-3.8106,-3.8145,-3.8125,-3.8125,-3.8214,-3.8233,-3.8284,-3.8309,-3.829,-3.8415,-3.8392,-3.835,-3.8277,-3.8406,-3.8453,-3.8473,-3.8207,-3.8205,-3.8203,-3.8201,0,0,-3.8036,-3.8071,-3.8094,-3.8114,-3.8146,-3.8194,-3.8268,-3.8319,-3.8351,-3.8385,-3.8445,-3.8524,-3.8485,-3.8511,-3.8495,-3.8548,-3.8671,-3.8499,-3.8499,-3.8527,-3.8806,-3.8835,-3.8858,-3.8648,-3.8651,-3.8654,-3.8802,0,-3.8187,-3.8315,-3.8299,-3.8422,-3.8479,-3.8433,-3.8497,-3.8523,-3.8525,-3.8573,-3.8575,-3.863,-3.8576,-3.8592,-3.8642,-3.8645,-3.8726,-3.8635,-3.87,-3.8703,-3.8691,-3.8884,-3.8915,-3.9053,-3.8821,-3.8824,-3.8827,0,-3.8379,-3.842,-3.8548,-3.857,-3.8593,-3.8651,-3.8695,-3.8743,-3.8771,-3.8768,-3.8799,-3.8772,-3.8845,-3.8774,-3.8872,-3.881,-3.8837,-3.8842,-3.8847,-3.885,-3.877,-3.8888,-3.9097,-3.9117,-3.8856,-3.8854,-3.8852,0,-3.8513,-3.8601,-3.8688,-3.8707,-3.8735,-3.8776,-3.879,-3.8814,-3.8845,-3.8883,-3.8903,-3.895,-3.8974,-3.901,-3.8997,-3.8947,-3.9097,-3.9026,-3.9094,-3.9095,-3.9125,-3.9123,-3.9338,-3.9148,-3.9148,-3.9148,-3.9147,0,-3.8681,-3.876,-3.8748,-3.8801,-3.8888,-3.8869,-3.8956,-3.8964,-3.8985,-3.9038,-3.9003,-3.9053,-3.9034,-3.9083,-3.9073,-3.9154,-3.9166,-3.9165,-3.916,-3.9166,-3.9166,-3.918,-3.9169,-3.9153,-3.9152,-3.9151,-3.915,0,-3.8844,-3.884,-3.8931,-3.8951,-3.8957,-3.902,-3.9036,-3.9086,-3.9085,-3.9153,-3.9167,-3.9166,-3.9222,-3.9213,-3.9275,-3.9268,-3.9368,-3.9354,-3.9359,-3.9354,-3.9422,-3.9415,-3.9651,-3.968,-3.9475,-3.9477,-3.9479,0,-3.8949,-3.9009,-3.9036,-3.9069,-3.9085,-3.914,-3.9171,-3.9155,-3.9188,-3.9224,-3.9269,-3.9321,-3.9362,-3.9453,-3.9457,-3.9503,-3.9488,-3.9568,-3.9494,-3.9497,-3.9485,-3.948,-3.9485,-3.9581,-3.9583,-3.9585,-3.9587,0,-3.9136,-3.9131,-3.9178,-3.9224,-3.9263,-3.9298,-3.933,-3.9359,-3.9345,-3.9385,-3.9441,-3.9473,-3.9536,-3.9587,-3.9631,-3.9644,-3.9612,-3.961,-3.9628,-3.9632,-3.9631,-3.9629,-3.9394,-3.9604,-3.9602,-3.9601,-3.96,-3.9599,-3.9271,-3.9322,-3.9347,-3.94,-3.9423,-3.9453,-3.95,-3.9506,-3.9553,-3.9602,-3.959,-3.9654,-3.9679,-3.9734,-3.9752,-3.98,-3.977,-3.9797,-3.9803,-3.9809,-3.9816,-3.9627,-3.9808,-3.9808,-3.9807,-3.9807,-3.9807,0,-3.9453,-3.9468,-3.9517,-3.9563,-3.9604,-3.9573,-3.9606,-3.9642,-3.9699,-3.9725,-3.9766,-3.983,-3.988,-3.9889,-3.9936,-3.9973,-3.9959,-3.9985,-3.998,-3.9983,-3.9841,-3.9819,-3.9995,-3.9995,-3.9995,-3.9995,-3.9995,-3.9995,-3.9553,-3.9635,-3.9633,-3.9726,-3.9739,-3.9801,-3.9823,-3.985,-3.9871,-3.9944,-3.9985,-3.9991,-4.001,-4.0058,-4.0102,-4.0103,-4.012,-4.0151,-4.0146,-4.0013,-3.9994,-3.9976,-3.9955,-4.0156,-4.0156,-4.0284,-4.0285,-4.0286]},{"header":{"parameterUnit":"m.s-1","parameterCategory":1,"la1":30.2991,"la2":30.254,"lo1":-89.0895,"lo2":-89.0444,"dy":0.0017,"dx":0.0017,"nx":28,"ny":28,"refTime":"2024-04-22T03:00:00:Z","depth":0,"parameterNumber":3,"parameterNumberName":"V-component_of_WINDS"},"data":[0,0,0,0,0,0,0,0,0,0,0,0,0,0,0,0,0,0,0,0,0,0,0,0,0,0,0,0,0,0,0,0,0,0,0,0,0,0,0,0,0,0,0,0,0,0,0,0,0,0,0,0,0,0,0,0,0,0,-0.9866,-0.9866,0,-0.9901,-0.9901,-0.9902,-0.9931,-0.9932,-0.9932,-0.9932,-0.9968,-0.9969,-0.997,0,0,0,0,0,0,0,0,0,0,0,0,0,-0.9824,-0.9824,-0.9866,-0.9866,-0.9866,-0.9901,-0.9901,-0.9902,-0.9931,-0.9932,-0.9932,-0.9932,-0.9968,-0.9969,-0.997,0,0,0,0,0,0,0,0,0,0,0,0,0,-0.9849,-0.9825,-0.9866,-0.9885,-0.9887,-0.9901,-0.9901,-0.9902,-0.9931,-0.9932,-0.9932,-0.9933,-0.9968,-0.9969,-0.997,-0.9966,0,0,-0.9973,-0.9973,0,0,0,0,0,0,0,0,-0.9847,-0.985,-0.9882,-0.9884,-0.9886,-0.9912,-0.99,-0.9923,-0.9931,-0.9915,-0.9932,-0.9933,-0.9949,-0.9952,-0.9957,-0.9968,-0.9969,-0.9973,-0.9974,-0.9974,-0.9974,0,0,0,0,0,0,0,-0.9845,-0.9849,-0.988,-0.9882,-0.9885,-0.9892,-0.9896,-0.9904,-0.9929,-0.9916,-0.9918,-0.9922,-0.9951,-0.9956,-0.9958,-0.997,-0.9973,-0.9974,-0.9974,-0.9975,-0.9978,-0.9978,0,0,0,0,0,0,-0.9841,-0.9847,-0.9878,-0.9881,-0.9868,-0.9893,-0.9897,-0.9903,-0.9929,-0.9933,-0.9922,-0.9923,-0.9954,-0.9957,-0.996,-0.9957,-0.9974,-0.9975,-0.9976,-0.9979,-0.9978,-0.9977,0,0,0,0,0,0,-0.984,-0.9843,-0.9877,-0.9864,-0.9869,-0.9893,-0.99,-0.9904,-0.991,-0.9933,-0.9937,-0.9923,-0.9955,-0.9958,-0.9964,-0.9958,-0.9975,-0.9976,-0.9979,-0.9978,-0.9978,-0.995,0,0,0,0,0,0,-0.9838,-0.9843,-0.9842,-0.9864,-0.987,-0.9881,-0.9899,-0.9904,-0.9911,-0.9914,-0.9935,-0.994,-0.9956,-0.9962,-0.9965,-0.996,-0.9977,-0.998,-0.9979,-0.9978,-0.9952,-0.9949,-0.9946,0,0,0,0,0,-0.9837,-0.9833,-0.9841,-0.9845,-0.9869,-0.988,-0.9884,-0.9902,-0.9911,-0.991,-0.9924,-0.9939,-0.9958,-0.9963,-0.9966,-0.9961,-0.998,-0.9979,-0.9978,-0.9953,-0.9949,-0.9946,0,0,0,0,0,0,-0.9809,-0.9836,-0.9846,-0.9849,-0.9862,-0.9885,-0.9885,-0.9898,-0.9909,-0.9911,-0.9933,-0.9938,-0.9941,-0.9952,-0.9956,-0.9958,-0.9971,-0.9971,-0.9951,-0.9948,-0.9945,-0.9942,-0.9978,0,0,0,0,0,-0.9804,-0.9811,-0.9834,-0.9834,-0.984,-0.9861,-0.9867,-0.988,-0.9894,-0.99,-0.9915,-0.9929,-0.9938,-0.9943,-0.9953,-0.9953,-0.9958,-0.9951,-0.9948,-0.9946,-0.9945,-0.9945,-0.9942,-0.9974,-0.9974,-0.9974,0,0,-0.9792,-0.9808,-0.9811,-0.9829,-0.9841,-0.9847,-0.9866,-0.9872,-0.9877,-0.9901,-0.9907,-0.9919,-0.9935,-0.9938,-0.994,-0.9947,-0.9937,-0.9944,-0.9942,-0.9943,-0.9944,-0.9941,-0.9938,-0.9973,-0.9973,-0.9973,0,0,-0.9774,-0.9787,-0.9788,-0.9799,-0.9816,-0.983,-0.983,-0.9851,-0.986,-0.9866,-0.9884,-0.989,-0.9906,-0.9916,-0.9924,-0.9908,-0.9921,-0.9911,-0.9895,-0.9895,-0.9893,-0.9891,-0.9885,-0.9882,-0.991,-0.991,-0.991,0,-0.9758,-0.9768,-0.9788,-0.9792,-0.98,-0.9821,-0.9823,-0.9832,-0.9852,-0.9856,-0.9864,-0.9883,-0.9895,-0.99,-0.9896,-0.9902,-0.9903,-0.9908,-0.9891,-0.989,-0.9888,-0.9882,-0.988,-0.9908,-0.9908,-0.9909,-0.9909,0,-0.9747,-0.9754,-0.9753,-0.977,-0.9778,-0.9781,-0.98,-0.9805,-0.9817,-0.983,-0.9835,-0.9851,-0.9864,-0.9866,-0.9878,-0.9872,-0.9876,-0.9887,-0.9901,-0.9883,-0.9878,-0.9876,-0.9906,-0.9907,-0.9907,-0.9908,0,0,-0.9714,-0.9741,-0.974,-0.9748,-0.9768,-0.9773,-0.9777,-0.9789,-0.9793,-0.9805,-0.9808,-0.982,-0.983,-0.9838,-0.9852,-0.9852,-0.9837,-0.9863,-0.9863,-0.9857,-0.9831,-0.9823,-0.982,-0.9846,-0.9846,-0.9846,-0.983,0,-0.9699,-0.9706,-0.9723,-0.9726,-0.9732,-0.9752,-0.9755,-0.9767,-0.9779,-0.9785,-0.9799,-0.9806,-0.9819,-0.9824,-0.9825,-0.9839,-0.9832,-0.984,-0.9849,-0.9849,-0.9844,-0.9817,-0.9809,-0.9793,-0.9828,-0.9828,-0.9827,0,-0.9683,-0.9693,-0.9696,-0.9714,-0.9717,-0.972,-0.9732,-0.9738,-0.9752,-0.976,-0.9769,-0.9783,-0.9788,-0.98,-0.9806,-0.9811,-0.9815,-0.9823,-0.9822,-0.9824,-0.9837,-0.9818,-0.9788,-0.9786,-0.9825,-0.9825,-0.9825,0,-0.9657,-0.9672,-0.9675,-0.9681,-0.9703,-0.9704,-0.9713,-0.9728,-0.9734,-0.9744,-0.9748,-0.9759,-0.9764,-0.9772,-0.9789,-0.9796,-0.9793,-0.9807,-0.98,-0.9799,-0.9798,-0.9798,-0.9769,-0.9801,-0.9801,-0.9801,-0.9802,0,-0.9639,-0.964,-0.9664,-0.9666,-0.9667,-0.9686,-0.9687,-0.9698,-0.971,-0.9715,-0.9733,-0.9736,-0.9758,-0.9764,-0.9777,-0.978,-0.9782,-0.9789,-0.9792,-0.9787,-0.9786,-0.9791,-0.9792,-0.9801,-0.9801,-0.9801,-0.9801,0,-0.9611,-0.9628,-0.9632,-0.9652,-0.9657,-0.9657,-0.9674,-0.9676,-0.9689,-0.9694,-0.9696,-0.9715,-0.9723,-0.974,-0.9753,-0.9762,-0.9761,-0.9767,-0.9756,-0.9758,-0.975,-0.975,-0.9722,-0.9719,-0.9754,-0.9754,-0.9753,0,-0.9598,-0.9599,-0.9618,-0.9622,-0.9631,-0.9637,-0.9643,-0.9661,-0.9666,-0.9682,-0.9682,-0.9691,-0.9699,-0.9711,-0.9726,-0.9735,-0.9742,-0.9731,-0.9744,-0.9738,-0.9741,-0.9741,-0.9741,-0.9729,-0.9728,-0.9728,-0.9728,0,-0.9573,-0.9581,-0.9589,-0.9599,-0.9605,-0.9614,-0.9624,-0.9626,-0.9647,-0.9652,-0.966,-0.9666,-0.9678,-0.9687,-0.9698,-0.9708,-0.9721,-0.9724,-0.9722,-0.9717,-0.971,-0.9713,-0.9748,-0.9724,-0.9725,-0.9725,-0.9725,-0.9725,-0.9552,-0.9554,-0.9567,-0.9575,-0.9584,-0.9592,-0.9595,-0.9608,-0.9615,-0.9626,-0.9636,-0.9643,-0.9656,-0.9673,-0.9681,-0.9686,-0.9693,-0.9692,-0.9691,-0.969,-0.9688,-0.9709,-0.9689,-0.9689,-0.9689,-0.9689,-0.9689,0,-0.9528,-0.9537,-0.9544,-0.9557,-0.9563,-0.9574,-0.9585,-0.9589,-0.9595,-0.9606,-0.9613,-0.9622,-0.963,-0.9645,-0.9655,-0.9656,-0.9662,-0.9658,-0.9658,-0.966,-0.9682,-0.9681,-0.9652,-0.9652,-0.9652,-0.9652,-0.9652,-0.9652,-0.9516,-0.9518,-0.9528,-0.9535,-0.9544,-0.9551,-0.9556,-0.9564,-0.9572,-0.9581,-0.9588,-0.9598,-0.961,-0.962,-0.9628,-0.9632,-0.9635,-0.9628,-0.9634,-0.9655,-0.9658,-0.9661,-0.9661,-0.9629,-0.9629,-0.9612,-0.9612,-0.9612]}]]